Torna al catalogo

COSMOS 2391

AttivoMilitarePO
NORAD 27465·PAYLOAD·🇷🇺 Russia

Lanciato Jul 8, 2002 da Plesetsk Cosmodrome

Loading…

Prossimi Passaggi (prossime 24 ore)

TLE

AggiornatoSource: Space-Track

Epoca: Sep 14, 2026, 14:00 UTC

1 27465U 02036B   26257.58399178  .00000048  00000-0  26927-3 0  9998
2 27465  82.4801 285.5537 0027378  58.4377 301.9372 12.44948207 98974

Traccia COSMOS 2391 in tempo reale con AllMySat

Download on the App Store